P/2020 S6 ( Leonard )

Japanese version
Home page
Updated on September 10, 2022

---------------------------------------------------------------------

* Profile

Discovery Date September 29, 2020
Magnitude 20.5 mag
Discoverer Gregory J. Leonard (Mount Lemmon Survey)

* Pictures

* Orbital Elements

Epoch 2022 Aug. 9.0 TT = JDT 2459800.5                                          
T 2020 Nov. 23.75333 TT                                 Rudenko                 
q   1.8739209            (2000.0)            P               Q                  
n   0.14430841     Peri.  176.67456     +0.50993801     -0.82704655             
a   3.5997717      Node   242.54159     +0.78294959     +0.56014677             
e   0.4794334      Incl.   15.46114     +0.35630487     -0.04721861             
P   6.83                                                                        
From 284 observations 2013 Dec. 29-2021 Feb. 13, mean residual 0".6.            

* Magnitudes Graph

        m1 = 10.0 + 5 log d + 30.0 log r

---------------------------------------------------------------------

The orbital elements are published on M.P.E.C. 2022-R68.
The magnitudes graphs are made with Comet for Windows.

---------------------------------------------------------------------

Copyright(C) Seiichi Yoshida (comet@aerith.net). All rights reserved.